Weather History for KRNM - July, 2013

Change the Weather History Date:

Saturday, July 20, 2013

  Actual Average Record
Temperature  
Mean Temperature 68 °F 73 °F  
Max Temperature 79 °F 89 °F 102 °F (1982)
Min Temperature 56 °F 57 °F 46 °F (1980)
Degree Days  
Heating Degree Days 0 0  
Month to date heating degree days 0 0  
Since 1 June heating degree days 2 27  
Since 1 July heating degree days 0 0  
Cooling Degree Days 3 8  
Month to date cooling degree days 181 133  
Year to date cooling degree days 339 246  
Since 1 June cooling degree days 291 219  
Growing Degree Days 16 (Base 50)    
Moisture  
Dew Point 57 °F    
Average Humidity 76    
Maximum Humidity 100    
Minimum Humidity 52    
Precipitation  
Precipitation 0.00 in 0.01 in 1.41 in (1979)
Month to date precipitation T 0.07  
Year to date precipitation 4.50 11.40  
Since 1 July precipitation T  
Snow  
Snow 0.00 in - - ()
Month to date snowfall 0.0  
Year to date snowfall 0.0  
Snow Depth 0.00 in    
Sea Level Pressure  
Sea Level Pressure 29.86 in    
Wind  
Wind Speed 4 mph (WNW)    
Max Wind Speed 9 mph    
Max Gust Speed 20 mph    
Visibility 4 miles    
Events Fog    
T = Trace of Precipitation, MM = Missing Value Source: NWS Daily Summary

Daily Weather History Graph

Daily Weather History Graph

Search for Another Location

Airport or City:

Trip Planner

Search our weather history database for the weather conditions in past years. The results will help you decide how hot, cold, wet, or windy it might be!

Date:

Astronomy

Jul. 20, 2013 Rise Set
Actual Time 5:53 AM PDT 7:54 PM PDT
Civil Twilight 5:25 AM PDT 8:22 PM PDT
Nautical Twilight 4:51 AM PDT 8:55 PM PDT
Astronomical Twilight 4:15 AM PDT 9:31 PM PDT
Moon 6:03 PM PDT (7/20) 3:37 AM PDT (7/20)
Length of Visible Light 14h 56m
Length of Day
14h 01m
Waxing Gibbous, 94% of the Moon is Illuminated
Jul 20
Waxing Gibbous
Jul 22
Full
Jul 29
Last Quarter
Aug 6
New
Aug 14
First Quarter

Hourly Weather History & Observations

Time (PDT) Temp. Dew Point Humidity Pressure Visibility Wind Dir Wind Speed Gust Speed Precip Events Conditions
12:09 AM 57.2 °F 55.4 °F 94% 29.90 in 7.0 mi West 4.6 mph - N/A   Scattered Clouds
12:16 AM 57.2 °F 55.4 °F 94% 29.90 in 7.0 mi West 5.8 mph - N/A   Mostly Cloudy
12:29 AM 59.0 °F 57.2 °F 94% 29.90 in 5.0 mi WNW 5.8 mph - N/A   Overcast
12:53 AM 59.0 °F 57.0 °F 93% 29.86 in 4.0 mi Calm Calm - N/A   Overcast
1:16 AM 57.2 °F 57.2 °F 100% 29.89 in 2.5 mi Calm Calm - N/A   Overcast
1:19 AM 57.2 °F 57.2 °F 100% 29.89 in 3.0 mi Calm Calm - N/A   Overcast
1:38 AM 57.2 °F 55.4 °F 94% 29.89 in 1.8 mi Calm Calm - N/A   Overcast
1:53 AM 57.0 °F 55.9 °F 96% 29.85 in 1.5 mi Calm Calm - N/A   Overcast
2:06 AM 57.2 °F 55.4 °F 94% 29.89 in 3.0 mi Calm Calm - N/A   Mostly Cloudy
2:13 AM 57.2 °F 55.4 °F 94% 29.89 in 1.5 mi Calm Calm - N/A   Mostly Cloudy
2:16 AM 57.2 °F 55.4 °F 94% 29.89 in 0.8 mi Calm Calm - N/A   Mist
2:30 AM 57.2 °F 55.4 °F 94% 29.88 in 0.2 mi WSW 3.5 mph - N/A Fog Fog
2:38 AM 55.4 °F 55.4 °F 100% 29.88 in 0.2 mi WNW 3.5 mph - N/A Fog Fog
2:53 AM 57.0 °F 57.0 °F 100% 29.83 in 0.2 mi Calm Calm - N/A Fog Fog
3:33 AM 57.2 °F 57.2 °F 100% 29.87 in 1.0 mi Calm Calm - N/A   Mist
3:37 AM 57.2 °F 57.2 °F 100% 29.87 in 2.0 mi Calm Calm - N/A   Mostly Cloudy
3:46 AM 57.2 °F 55.4 °F 94% 29.87 in 3.0 mi West 3.5 mph - N/A   Scattered Clouds
3:53 AM 55.9 °F 55.0 °F 97% 29.83 in 3.0 mi West 3.5 mph - N/A   Scattered Clouds
4:01 AM 55.4 °F 55.4 °F 100% 29.87 in 3.0 mi Calm Calm - N/A   Mostly Cloudy
4:08 AM 57.2 °F 55.4 °F 94% 29.87 in 1.8 mi NW 5.8 mph - N/A   Mostly Cloudy
4:17 AM 57.2 °F 57.2 °F 100% 29.87 in 1.0 mi WNW 3.5 mph - N/A   Mist
4:24 AM 57.2 °F 57.2 °F 100% 29.87 in 0.5 mi Calm Calm - N/A Fog Fog
4:32 AM 57.2 °F 55.4 °F 94% 29.87 in 1.2 mi Calm Calm - N/A   Overcast
4:42 AM 57.2 °F 55.4 °F 94% 29.86 in 0.8 mi Calm Calm - N/A   Mist
4:53 AM 57.0 °F 57.0 °F 100% 29.83 in 0.5 mi Calm Calm - N/A Fog Fog
5:53 AM 57.0 °F 57.0 °F 100% 29.83 in 0.2 mi Calm Calm - N/A Fog Fog
6:41 AM 57.2 °F 57.2 °F 100% 29.88 in 0.5 mi Calm Calm - N/A Fog Fog
6:53 AM 57.9 °F 57.9 °F 100% 29.86 in 0.8 mi Calm Calm - N/A   Overcast
6:58 AM 57.2 °F 57.2 °F 100% 29.88 in 1.2 mi Calm Calm - N/A   Overcast
7:09 AM 57.2 °F 57.2 °F 100% 29.89 in 2.5 mi WNW 4.6 mph - N/A   Overcast
7:37 AM 59.0 °F 57.2 °F 94% 29.89 in 3.0 mi West 3.5 mph - N/A   Overcast
7:53 AM 59.0 °F 57.9 °F 96% 29.87 in 4.0 mi West 5.8 mph - N/A   Mostly Cloudy
8:10 AM 60.8 °F 57.2 °F 88% 29.90 in 5.0 mi West 3.5 mph - N/A   Scattered Clouds
8:53 AM 63.0 °F 57.0 °F 81% 29.87 in 8.0 mi WNW 3.5 mph - N/A   Clear
9:53 AM 66.9 °F 57.9 °F 73% 29.85 in 9.0 mi NW 4.6 mph - N/A   Clear
10:53 AM 66.9 °F 57.9 °F 73% 29.86 in 8.0 mi NW 4.6 mph - N/A   Clear
11:53 AM 71.1 °F 57.9 °F 63% 29.87 in 10.0 mi NW 4.6 mph - N/A   Clear
12:53 PM 70.0 °F 59.0 °F 68% 29.85 in 10.0 mi WNW 8.1 mph - N/A   Partly Cloudy
1:53 PM 71.1 °F 59.0 °F 66% 29.86 in 10.0 mi NW 6.9 mph - N/A   Clear
2:53 PM 73.9 °F 59.0 °F 59% 29.84 in 10.0 mi WNW 6.9 mph - N/A   Clear
3:53 PM 77.0 °F 59.0 °F 54% 29.81 in 10.0 mi West 3.5 mph - N/A   Clear
4:53 PM 78.1 °F 59.0 °F 52% 29.80 in 10.0 mi WNW 6.9 mph - N/A   Partly Cloudy
5:53 PM 77.0 °F 59.0 °F 54% 29.78 in 10.0 mi WNW 5.8 mph - N/A   Mostly Cloudy
6:53 PM 72.0 °F 59.0 °F 64% 29.79 in 10.0 mi West 9.2 mph - N/A   Clear
7:53 PM 66.9 °F 59.0 °F 76% 29.82 in 10.0 mi WNW 8.1 mph - N/A   Clear
8:53 PM 63.0 °F 59.0 °F 87% 29.83 in 8.0 mi West 6.9 mph - N/A   Clear
9:53 PM 62.1 °F 59.0 °F 90% 29.84 in 7.0 mi West 5.8 mph - N/A   Clear
10:53 PM 62.1 °F 59.0 °F 90% 29.84 in 7.0 mi NW 3.5 mph - N/A   Clear
11:53 PM 61.0 °F 57.9 °F 90% 29.84 in 7.0 mi Calm Calm - N/A   Clear